Location: Gebenbach
(49.5378°N, 11.8735°E)
Time: 03:31:42
(UTC+00:00)

SMAP - Pass Details

Date: 29 October 2020
Orbit: 681 x 683 km, 98.1° (Epoch: 27 November)

Event Time Altitude Azimuth Distance (km) Brightness Sun altitude
Rises 16:23:12 0° 162° (SSE) 3,034 6.4 -5.2°
Reaches altitude 10° 16:25:26 10° 162° (SSE) 2,123 5.6 -5.5°
Maximum altitude 16:30:05 85° 75° (ENE) 693 3.1 -6.3°
Drops below altitude 10° 16:34:46 10° 347° (NNW) 2,139 5.6 -7.0°
Sets 16:37:01 0° 347° (NNW) 3,059 6.4 -7.4°
